This demonstration page uses our WeatherBlox Daily Observations layout. Learn more.

Left ArrowRight Arrow

Hourly Observations for November 11, 2019

Temp ( °F °C ) Dew Point ( °F °C ) Humidity (%) Winds ( mph kmh ) Pressure ( in mb ) Visibility ( mi km ) Precip ( " mm )
12:53 am 00:53 Cloudy 22 -5.6 14 -10 71 71 NNE 20 31 30.43 1031 10 16 0.00 0.00
1:28 am 01:28 Windy with Snow Likely 19 -7 14 -10 79 79 N 25 41 30.54 1034 3 4 0.00 0.00
1:38 am 01:38 Windy with Snow Likely 20 -6.7 14 -10 78 78 N 22 35 30.54 1034 4 6 0.00 0.00
1:46 am 01:46 Cloudy with Light Snow 19 -7 16 -9 86 86 N 17 28 30.54 1034 2 3 0.00 0.00
1:53 am 01:53 Windy with Snow Likely 20 -6.7 15 -9.4 81 81 N 26 43 30.46 1032 2 2 0.00 0.00
2:08 am 02:08 Windy with Snow Likely 19 -7.2 14 -10 81 81 N 25 41 30.57 1035 3 5 0.00 0.00
2:32 am 02:32 Windy with Snow Likely 19 -7 14 -10 79 79 N 21 33 30.59 1036 2 3 0.00 0.00
2:49 am 02:49 Windy with Snow Likely 19 -7 14 -10 79 79 NNE 20 31 30.60 1036 2 3 0.00 0.00
2:53 am 02:53 Windy with Snow Likely 19 -7.2 14 -10 81 81 N 22 35 30.50 1033 2 3 0.00 0.00
3:13 am 03:13 Windy with Snow Likely 18 -7.8 12 -11.1 77 77 N 26 43 30.61 1037 1 2 0.00 0.00
3:43 am 03:43 Windy with Snow Likely 18 -7.8 12 -11.1 77 77 N 26 43 30.63 1037 2 3 0.00 0.00
3:53 am 03:53 Windy with Snow Likely 17 -8.3 12 -11.1 80 80 N 20 31 30.54 1034 2 2 0.00 0.00
4:08 am 04:08 Windy with Snow Likely 17 -8.3 12 -11.1 80 80 N 23 37 30.65 1038 2 3 0.00 0.00
4:17 am 04:17 Windy with Snow Likely 17 -8.3 12 -11.1 80 80 N 26 43 30.65 1038 1 2 0.00 0.00
4:27 am 04:27 Windy with Snow Likely 17 -8.3 12 -11.1 80 80 N 26 43 30.66 1038 1 2 0.00 0.00
4:49 am 04:49 Windy with Snow Likely 16 -9 10 -12 79 79 N 24 39 30.66 1038 3 4 0.00 0.00
4:53 am 04:53 Windy with Snow Likely 16 -8.9 10 -12.2 77 77 N 24 39 30.57 1035 3 4 0.00 0.00
5:45 am 05:45 Windy with Snow Likely 16 -8.9 11 -11.7 80 80 N 20 31 30.68 1039 1 2 0.00 0.00
5:53 am 05:53 Cloudy with Light Snow 16 -8.9 11 -11.7 80 80 N 18 30 30.61 1037 1 2 0.00 0.00
6:10 am 06:10 Windy with Snow Likely 16 -8.9 11 -11.7 80 80 N 21 33 30.69 1039 2 3 0.00 0.00
6:19 am 06:19 Cloudy with Light Snow 16 -8.9 11 -11.7 80 80 N 17 28 30.70 1040 2 3 0.00 0.00
6:30 am 06:30 Cloudy with Light Snow 16 -8.9 11 -11.7 80 80 N 15 24 30.71 1040 3 4 0.00 0.00
6:37 am 06:37 Cloudy with Light Snow 16 -8.9 11 -11.7 80 80 N 15 24 30.71 1040 6 10 0.00 0.00
6:53 am 06:53 Cloudy 16 -8.9 10 -12.2 77 77 N 18 30 30.65 1038 10 16 0.00 0.00
7:53 am 07:53 Cloudy with Light Snow 17 -8.3 10 -12.2 74 74 N 18 30 30.68 1039 7 11 0.00 0.00
8:53 am 08:53 Mostly Cloudy 15 -9.4 6 -14.4 67 67 N 25 41 30.72 1040 9 14 0.00 0.00
9:53 am 09:53 Cloudy 14 -10 3 -16.1 61 61 N 30 48 30.75 1041 10 16 0.00 0.00
10:53 am 10:53 Partly Cloudy 16 -8.9 4 -15.6 59 59 N 21 33 30.75 1041 10 16 0.00 0.00
11:03 am 11:03 Mostly Cloudy 16 -8.9 5 -15 62 62 N 21 33 30.82 1044 10 16 0.00 0.00
11:14 am 11:14 Partly Cloudy 18 -8 3 -16 53 53 N 28 44 30.82 1044 10 16 0.00 0.00
11:53 am 11:53 Sunny 17 -8.3 4 -15.6 56 56 N 22 35 30.76 1042 10 16 0.00 0.00
12:53 pm 12:53 Partly Cloudy 17 -8.3 4 -15.6 56 56 N 20 31 30.75 1041 10 16 0.00 0.00
1:53 pm 13:53 Cloudy 20 -6.7 6 -14.4 55 55 NNW 22 35 30.73 1041 10 16 0.00 0.00
2:53 pm 14:53 Mostly Cloudy 20 -6.7 5 -15 52 52 NNW 20 31 30.72 1040 10 16 0.00 0.00
3:53 pm 15:53 Mostly Cloudy 19 -7.2 6 -14.4 57 57 N 17 28 30.73 1041 10 16 0.00 0.00
4:53 pm 16:53 Mostly Sunny 17 -8.3 4 -15.6 56 56 N 16 26 30.74 1041 10 16 0.00 0.00
5:53 pm 17:53 Clear 14 -10 4 -15.6 64 64 NNW 8 13 30.76 1042 10 16 0.00 0.00
6:53 pm 18:53 Clear 10 -12.2 3 -16.1 73 73 NW 7 11 30.77 1042 10 16 0.00 0.00
7:53 pm 19:53 Clear 10 -12.2 3 -16.1 73 73 NW 5 7 30.77 1042 10 16 0.00 0.00
8:53 pm 20:53 Clear 6 -14.4 0 -17.8 76 76 WNW 6 9 30.79 1043 10 16 0.00 0.00
9:53 pm 21:53 Clear 4 -15.6 -1 -18.3 80 80 WNW 5 7 30.79 1043 10 16 0.00 0.00
10:53 pm 22:53 Clear 6 -14.4 1 -17.2 79 79 W 3 6 30.78 1042 10 16 0.00 0.00
11:53 pm 23:53 Clear 4 -15.6 -1 -18.3 80 80 WSW 6 9 30.78 1042 10 16 0.00 0.00

Powered by AerisWeather